Regional Weather Roundup
Issued by NWS Albany, NY

Home | Current Version | Previous Version | Text Only | Print | Product List | Glossary On
Versions: 1 2 3 4 5 6 7 8 9 10 11 12 13 14 15 16 17 18 19 20 21 22 23 24 25 26 27
000
ASUS41 KALY 260510
RWRALY

NEW YORK STATE HOURLY WEATHER ROUNDUP
NATIONAL WEATHER SERVICE ALBANY NY
100 AM EDT WED APR 26 2017

NOTE: "FAIR" INDICATES FEW OR NO CLOUDS BELOW 12,000 FEET WITH NO
SIGNIFICANT WEATHER AND/OR NO OBSTRUCTIONS TO VISIBILITY.

NYZ032-033-038>043-046>054-057>066-NYZ062>081-082-084-260600-
EAST


CITY           SKY/WX    TMP DP  RH WIND       PRES   REMARKS
ALBANY         LGT RAIN  50  48  93 N7        29.96F
GLENS FALLS    LGT RAIN  49  46  90 N7        30.00F
POUGHKEEPSIE   CLOUDY    50  49  96 N5        29.89F
NEWBURGH       LGT RAIN  50  50 100 E6        29.90F FOG
MONTGOMERY     LGT RAIN  51  49  92 NE12      29.88F FOG
WHITE PLAINS   LGT RAIN  54  52  93 NE15G21   29.83F
ISLIP          CLOUDY    58  58 100 E15       29.80F
NEW YORK CITY  CLOUDY    53  50  89 NE25G32   29.81F FOG
CENTRAL PARK   CLOUDY    53  52  96 E9G17     29.84F FOG
$$

NYZ005>009-017-018-044>046-055-056-260600-
CENTRAL


CITY           SKY/WX    TMP DP  RH WIND       PRES   REMARKS
FULTON         CLOUDY    53  48  83 E12G21    29.87S
SYRACUSE       CLOUDY    50  50 100 E13       29.87F
ROME           LGT RAIN  51  49  92 E9        29.93F
ELMIRA         CLOUDY    55  52  89 NE6       29.84F
BINGHAMTON     CLOUDY    49  49 100 E7        29.86S
MONTICELLO     CLOUDY    48  48 100 E13       29.88F
$$

NYZ026>034-041>043-087-260600-
NORTH


CITY           SKY/WX    TMP DP  RH WIND       PRES   REMARKS
WATERTOWN      CLOUDY    54  50  86 E8        29.89F
FORT DRUM      NOT AVBL
OGDENSBURG     CLOUDY    48  47  97 NE5       29.95F FOG
MASSENA        CLOUDY    49  48  97 N6        29.96F
SARANAC LAKE   CLOUDY    49  48  97 NE6       29.95F
PLATTSBURGH    LGT RAIN  46  45  96 S3        30.02F
$$

NYZ001>004-010>016-019>021-085-260600-
WEST


CITY           SKY/WX    TMP DP  RH WIND       PRES   REMARKS
NIAGARA FALLS  CLOUDY    60  52  74 SE7       29.82S
BUFFALO        CLOUDY    57  52  83 NE5       29.82F
DUNKIRK        CLOUDY    57  52  83 NE6       29.80F
JAMESTOWN      CLOUDY    55  48  76 S8        29.81F
WELLSVILLE     CLOUDY    53  50  89 SE8       29.84F
ROCHESTER      CLOUDY    55  49  80 E7        29.85S
PENN YAN       CLOUDY    55  48  77 E5        29.85F
$$

             KEY
       WCI = WIND CHILL INDEX
       VSB = VISIBILITY
       HX  = HEAT INDEX
$$




USA.gov is the U.S. government's official web portal to all federal, state and local government web resources and services.